Tracking 28794 objects as of 19-Apr-2024
HD Live streaming from Space Station
objects crossing your sky now

COSMOS 2251 DEB

Track COSMOS 2251 DEB now!
10-day predictions


NORAD ID: 39588
Int'l Code: 1993-036BUT
Perigee: 662.3 km
Apogee: 744.1 km
Inclination: 74.1 °
Period: 98.7 minutes
Semi major axis: 7074 km
RCS: 0.0095 m2 (small)
Launch date: June 16, 1993
Source: Commonwealth of Independent States (former USSR) (CIS)
Launch site: PLESETSK MISSILE AND SPACE COMPLEX (PKMTR)

Note: This is SATELLITE DEBRIS
Your satellite tracking list
Your tracking list is empty




NASA's NSSDC Master Catalog

Two Line Element Set (TLE):
1 39588U 93036BUT 24106.88594760  .00029155  00000-0  60325-2 0  9994
2 39588  74.1241 327.7949 0057772  52.8537 320.9164 14.59110636638102
Source of the keplerian elements: AFSPC